ABY542 OMSJ-OPKC

Flight info

Callsign ABY542
Flight time N/A
Altitude 37000
Route IVURO M677 LALDO B505 NADSO B524 ALPOR G216 LAKIV
Aircraft A320/M-SDE3FGHIRWY/LB1

Departure

Time N/A
Airport Sharjah International Airport (OMSJ)

Arrival

Time 2026-04-29 15:48
Airport Jinnah International Airport (OPKC)
Time Latitude Longitude Altitude Speed Heading
2026-04-29 14:33 25.03253 57.30609 28238 ft 518 kts 115°
2026-04-29 14:33 25.01845 57.34277 28402 ft 520 kts 115°
2026-04-29 14:33 25.00435 57.37953 28558 ft 521 kts 115°
2026-04-29 14:33 24.99019 57.41641 28704 ft 522 kts 115°
2026-04-29 14:34 24.97602 57.45327 28886 ft 522 kts 115°
2026-04-29 14:34 24.96184 57.49003 29152 ft 521 kts 115°
2026-04-29 14:34 24.94764 57.52674 29440 ft 520 kts 115°
2026-04-29 14:34 24.93347 57.56338 29730 ft 518 kts 115°
2026-04-29 14:35 24.91937 57.59985 29975 ft 517 kts 115°
2026-04-29 14:35 24.90532 57.63624 30234 ft 515 kts 115°
2026-04-29 14:35 24.89130 57.67255 30487 ft 514 kts 115°
2026-04-29 14:35 24.87729 57.70875 30730 ft 513 kts 115°
2026-04-29 14:36 24.86328 57.74486 30982 ft 511 kts 115°
2026-04-29 14:36 24.84933 57.78074 31237 ft 510 kts 115°
2026-04-29 14:36 24.83583 57.81687 31491 ft 510 kts 111°
2026-04-29 14:36 24.82624 57.85446 31753 ft 510 kts 103°
2026-04-29 14:37 24.81864 57.89241 32015 ft 508 kts 103°
2026-04-29 14:37 24.81097 57.93045 32270 ft 507 kts 104°
2026-04-29 14:37 24.80331 57.96815 32548 ft 505 kts 104°
2026-04-29 14:37 24.79564 58.00583 32819 ft 504 kts 104°
2026-04-29 14:38 24.78795 58.04350 33091 ft 503 kts 104°
2026-04-29 14:38 24.78031 58.08094 33365 ft 501 kts 104°
2026-04-29 14:38 24.77266 58.11832 33646 ft 499 kts 104°
2026-04-29 14:38 24.76503 58.15556 33899 ft 497 kts 104°
2026-04-29 14:39 24.75754 58.19206 34138 ft 495 kts 104°
2026-04-29 14:39 24.74998 58.22892 34380 ft 493 kts 104°
2026-04-29 14:39 24.74245 58.26566 34629 ft 491 kts 104°
2026-04-29 14:39 24.73497 58.30222 34879 ft 488 kts 104°
2026-04-29 14:40 24.72992 58.32682 35048 ft 487 kts 104°
2026-04-29 14:40 24.72001 58.37476 35384 ft 483 kts 104°
2026-04-29 14:40 24.71256 58.41065 35642 ft 480 kts 104°
2026-04-29 14:40 24.70515 58.44639 35901 ft 477 kts 104°
2026-04-29 14:41 24.69780 58.48186 36165 ft 474 kts 104°
2026-04-29 14:41 24.69051 58.51708 36433 ft 470 kts 104°
2026-04-29 14:41 24.68329 58.55197 36663 ft 468 kts 104°
2026-04-29 14:42 24.66866 58.62222 36729 ft 473 kts 104°
2026-04-29 14:42 24.65397 58.69277 36728 ft 479 kts 104°
2026-04-29 14:43 24.63898 58.76460 36728 ft 485 kts 104°
2026-04-29 14:43 24.62373 58.83722 36726 ft 490 kts 104°
2026-04-29 14:44 24.60837 58.91059 36724 ft 495 kts 104°
2026-04-29 14:44 24.59281 58.98456 36724 ft 499 kts 104°
2026-04-29 14:45 24.57710 59.05903 36721 ft 502 kts 104°
2026-04-29 14:45 24.56131 59.13394 36724 ft 504 kts 104°
2026-04-29 14:46 24.54540 59.20909 36722 ft 506 kts 104°
2026-04-29 14:46 24.52934 59.28448 36721 ft 507 kts 104°
2026-04-29 14:47 24.51319 59.35993 36711 ft 508 kts 104°
2026-04-29 14:47 24.49702 59.43553 36706 ft 509 kts 104°
2026-04-29 14:48 24.48084 59.51118 36706 ft 510 kts 104°
2026-04-29 14:48 24.46450 59.58706 36707 ft 510 kts 104°
2026-04-29 14:49 24.44811 59.66282 36708 ft 511 kts 104°
2026-04-29 14:49 24.43172 59.73870 36708 ft 511 kts 104°
2026-04-29 14:50 24.41540 59.81456 36714 ft 511 kts 104°
2026-04-29 14:50 24.39895 59.89041 36716 ft 511 kts 104°
2026-04-29 14:51 24.38237 59.96612 36714 ft 511 kts 104°
2026-04-29 14:51 24.36579 60.04205 36719 ft 511 kts 104°
2026-04-29 14:52 24.34932 60.11729 36723 ft 511 kts 104°
2026-04-29 14:52 24.33276 60.19307 36726 ft 511 kts 104°
2026-04-29 14:53 24.31612 60.26885 36725 ft 511 kts 104°
2026-04-29 14:53 24.29939 60.34450 36727 ft 511 kts 104°
2026-04-29 14:54 24.28262 60.42011 36729 ft 511 kts 104°
2026-04-29 14:54 24.26589 60.49573 36734 ft 511 kts 104°
2026-04-29 14:55 24.24916 60.57136 36727 ft 510 kts 104°
2026-04-29 14:55 24.23239 60.64691 36733 ft 510 kts 104°
2026-04-29 14:56 24.21551 60.72250 36731 ft 510 kts 104°
2026-04-29 14:56 24.19864 60.79797 36728 ft 510 kts 104°
2026-04-29 14:57 24.18173 60.87346 36733 ft 511 kts 104°
2026-04-29 14:57 24.16483 60.94906 36734 ft 511 kts 104°
2026-04-29 14:58 24.14788 61.02462 36729 ft 511 kts 104°
2026-04-29 14:58 24.13089 61.10018 36734 ft 511 kts 104°
2026-04-29 14:59 24.11380 61.17570 36732 ft 511 kts 104°
2026-04-29 14:59 24.09680 61.25082 36734 ft 511 kts 104°
2026-04-29 15:00 24.08421 61.31438 36731 ft 511 kts 96°
2026-04-29 15:00 24.08340 61.36577 36731 ft 509 kts 83°
2026-04-29 15:00 24.08836 61.40402 36733 ft 508 kts 79°
2026-04-29 15:01 24.09971 61.48043 36725 ft 509 kts 79°
2026-04-29 15:01 24.10913 61.54445 36728 ft 509 kts 79°
2026-04-29 15:02 24.12030 61.62108 36736 ft 509 kts 79°
2026-04-29 15:02 24.13138 61.69719 36733 ft 509 kts 79°
2026-04-29 15:03 24.14245 61.77375 36734 ft 510 kts 79°
2026-04-29 15:03 24.15326 61.85050 36733 ft 510 kts 80°
2026-04-29 15:04 24.16363 61.92730 36736 ft 510 kts 80°
2026-04-29 15:04 24.17388 62.00416 36735 ft 510 kts 80°
2026-04-29 15:05 24.18417 62.08092 36740 ft 510 kts 80°
2026-04-29 15:05 24.19457 62.15776 36738 ft 510 kts 79°
2026-04-29 15:06 24.20490 62.23455 36739 ft 510 kts 80°
2026-04-29 15:06 24.21520 62.31153 36738 ft 510 kts 80°
2026-04-29 15:07 24.22536 62.38834 36741 ft 510 kts 80°
2026-04-29 15:07 24.23557 62.46523 36740 ft 510 kts 80°
2026-04-29 15:08 24.24572 62.54216 36738 ft 510 kts 80°
2026-04-29 15:08 24.25581 62.61921 36736 ft 510 kts 80°
2026-04-29 15:09 24.26584 62.69617 36740 ft 510 kts 80°
2026-04-29 15:09 24.27598 62.77319 36739 ft 510 kts 79°
2026-04-29 15:10 24.28599 62.85017 36741 ft 511 kts 80°
2026-04-29 15:10 24.29589 62.92736 36738 ft 511 kts 80°
2026-04-29 15:11 24.30581 63.00431 36741 ft 511 kts 80°
2026-04-29 15:11 24.31573 63.08146 36736 ft 511 kts 80°
2026-04-29 15:12 24.32565 63.15853 36738 ft 511 kts 80°
2026-04-29 15:12 24.33548 63.23563 36740 ft 511 kts 80°
2026-04-29 15:13 24.34519 63.31290 36740 ft 511 kts 80°
2026-04-29 15:13 24.35488 63.39000 36738 ft 511 kts 80°
2026-04-29 15:14 24.36460 63.46722 36737 ft 511 kts 80°
2026-04-29 15:14 24.37427 63.54443 36740 ft 511 kts 80°
2026-04-29 15:15 24.38387 63.62159 36739 ft 511 kts 80°
2026-04-29 15:15 24.39346 63.69893 36736 ft 511 kts 80°
2026-04-29 15:16 24.40298 63.77568 36739 ft 511 kts 80°
2026-04-29 15:16 24.41248 63.85306 36736 ft 512 kts 80°
2026-04-29 15:16 24.41709 63.89088 37222 ft 492 kts 83°
2026-04-29 15:17 24.42135 63.92707 38452 ft 464 kts 75°
2026-04-29 15:17 24.42509 63.96239 38746 ft 459 kts 73°
2026-04-29 15:17 24.42981 63.99677 38472 ft 468 kts 79°
2026-04-29 15:17 24.43469 64.03301 37851 ft 481 kts 77°
2026-04-29 15:18 24.43940 64.06883 37840 ft 480 kts 79°
2026-04-29 15:18 24.44382 64.10598 37646 ft 487 kts 81°
2026-04-29 15:18 24.44830 64.14238 37479 ft 490 kts 74°
2026-04-29 15:18 24.45370 64.17927 37298 ft 490 kts 73°
2026-04-29 15:19 24.45990 64.21609 37136 ft 491 kts 69°
2026-04-29 15:19 24.46643 64.25292 36984 ft 493 kts 76°
2026-04-29 15:19 24.47144 64.29017 37075 ft 489 kts 72°
2026-04-29 15:19 24.47470 64.32683 37383 ft 485 kts 77°
2026-04-29 15:20 24.47807 64.36398 36736 ft 491 kts 76°
2026-04-29 15:20 24.48215 64.40133 36182 ft 493 kts 82°
2026-04-29 15:20 24.48662 64.43868 35732 ft 495 kts 79°
2026-04-29 15:20 24.49081 64.47640 35448 ft 497 kts 72°
2026-04-29 15:21 24.49457 64.51416 35151 ft 499 kts 77°
2026-04-29 15:21 24.49830 64.55205 34918 ft 500 kts 81°
2026-04-29 15:21 24.50174 64.59018 34698 ft 501 kts 79°
2026-04-29 15:22 24.50975 64.66604 34730 ft 501 kts 74°
2026-04-29 15:22 24.51859 64.74203 34714 ft 502 kts 74°
2026-04-29 15:23 24.52875 64.81763 34777 ft 500 kts 77°
2026-04-29 15:23 24.53809 64.89357 34731 ft 504 kts 83°
2026-04-29 15:24 24.54150 64.97058 34734 ft 505 kts 85°
2026-04-29 15:24 24.54532 65.04758 34735 ft 505 kts 83°
2026-04-29 15:25 24.55127 65.12435 34733 ft 504 kts 82°
2026-04-29 15:25 24.55793 65.20102 34734 ft 504 kts 82°
2026-04-29 15:26 24.56411 65.27776 34734 ft 505 kts 82°
2026-04-29 15:26 24.56983 65.35466 34734 ft 505 kts 82°
2026-04-29 15:27 24.57549 65.43105 34735 ft 504 kts 82°
2026-04-29 15:27 24.58121 65.50799 34733 ft 508 kts 82°
2026-04-29 15:28 24.58704 65.58573 34734 ft 513 kts 82°
2026-04-29 15:28 24.59291 65.66412 34734 ft 517 kts 82°
2026-04-29 15:28 24.59587 65.70370 34550 ft 522 kts 82°
2026-04-29 15:29 24.59883 65.74348 34076 ft 524 kts 82°
2026-04-29 15:29 24.60471 65.82363 32251 ft 524 kts 82°
2026-04-29 15:30 24.61038 65.90348 30327 ft 524 kts 81°
2026-04-29 15:30 24.61321 65.94345 29220 ft 525 kts 81°
2026-04-29 15:30 24.61513 65.97046 28561 ft 523 kts 82°
2026-04-29 15:30 24.61885 66.02299 27280 ft 519 kts 82°
2026-04-29 15:31 24.62163 66.06241 26454 ft 515 kts 82°
2026-04-29 15:31 24.62442 66.10172 25615 ft 512 kts 83°
2026-04-29 15:31 24.62715 66.14043 24863 ft 507 kts 83°
2026-04-29 15:31 24.62987 66.17894 24237 ft 501 kts 83°
2026-04-29 15:32 24.63255 66.21710 23534 ft 498 kts 83°
2026-04-29 15:32 24.63519 66.25476 22761 ft 494 kts 84°
2026-04-29 15:32 24.63785 66.29253 21946 ft 498 kts 84°
2026-04-29 15:32 24.64049 66.33001 21328 ft 497 kts 84°
2026-04-29 15:33 24.64315 66.36815 20715 ft 493 kts 84°
2026-04-29 15:33 24.64572 66.40566 20112 ft 488 kts 84°
2026-04-29 15:33 24.64820 66.44256 19543 ft 483 kts 84°
2026-04-29 15:33 24.65064 66.47882 18984 ft 479 kts 84°
2026-04-29 15:34 24.65309 66.51505 18433 ft 474 kts 84°
2026-04-29 15:34 24.65552 66.55103 17886 ft 470 kts 84°
2026-04-29 15:34 24.65793 66.58670 17327 ft 466 kts 84°
2026-04-29 15:34 24.66034 66.62209 16855 ft 461 kts 84°
2026-04-29 15:35 24.66274 66.65728 16214 ft 461 kts 84°
2026-04-29 15:35 24.66512 66.69226 15658 ft 455 kts 84°
2026-04-29 15:35 24.66743 66.72651 15304 ft 441 kts 84°
2026-04-29 15:35 24.66965 66.75962 14727 ft 428 kts 84°
2026-04-29 15:36 24.67179 66.79188 14041 ft 420 kts 84°
2026-04-29 15:36 24.67389 66.82365 13424 ft 410 kts 84°
2026-04-29 15:36 24.67591 66.85443 12854 ft 398 kts 84°
2026-04-29 15:36 24.67785 66.88434 12328 ft 386 kts 84°
2026-04-29 15:37 24.67974 66.91334 11800 ft 375 kts 84°
2026-04-29 15:37 24.68160 66.94126 11288 ft 366 kts 84°
2026-04-29 15:37 24.68344 66.96914 10767 ft 357 kts 84°
2026-04-29 15:37 24.68518 66.99603 10401 ft 344 kts 84°
2026-04-29 15:38 24.68683 67.02145 10269 ft 325 kts 83°
2026-04-29 15:38 24.69074 67.04508 9913 ft 314 kts 71°
2026-04-29 15:38 24.69891 67.06697 9679 ft 307 kts 59°
2026-04-29 15:38 24.70979 67.08713 9556 ft 307 kts 56°
2026-04-29 15:39 24.72070 67.10716 9431 ft 306 kts 56°
2026-04-29 15:39 24.73160 67.12732 9308 ft 305 kts 57°
2026-04-29 15:39 24.74248 67.14746 8938 ft 307 kts 57°
2026-04-29 15:39 24.75346 67.16778 8490 ft 308 kts 57°
2026-04-29 15:40 24.76437 67.18796 8005 ft 310 kts 57°
2026-04-29 15:40 24.77526 67.20814 7791 ft 303 kts 57°
2026-04-29 15:40 24.78596 67.22796 7482 ft 298 kts 57°
2026-04-29 15:40 24.79633 67.24722 7356 ft 287 kts 57°
2026-04-29 15:41 24.80640 67.26592 7122 ft 281 kts 57°
2026-04-29 15:41 24.81629 67.28429 6810 ft 278 kts 57°
2026-04-29 15:41 24.82647 67.30310 6069 ft 294 kts 57°
2026-04-29 15:41 24.83704 67.32262 5532 ft 299 kts 57°
2026-04-29 15:42 24.84769 67.34233 5110 ft 299 kts 57°
2026-04-29 15:42 24.85828 67.36201 4708 ft 297 kts 58°
2026-04-29 15:42 24.87022 67.38016 4153 ft 298 kts 40°
2026-04-29 15:42 24.88862 67.39120 3414 ft 302 kts
2026-04-29 15:43 24.90878 67.39128 3100 ft 288 kts 343°
2026-04-29 15:43 24.92780 67.38575 3038 ft 271 kts 341°
2026-04-29 15:43 24.94461 67.37899 2975 ft 250 kts 321°
2026-04-29 15:43 24.95454 67.36497 2901 ft 224 kts 282°
2026-04-29 15:44 24.95387 67.34861 2754 ft 209 kts 249°
2026-04-29 15:44 24.94926 67.33411 2616 ft 198 kts 252°
2026-04-29 15:44 24.94668 67.32443 2524 ft 192 kts 253°
2026-04-29 15:44 24.94308 67.31033 2388 ft 191 kts 254°
2026-04-29 15:45 24.93959 67.29656 2239 ft 181 kts 253°
2026-04-29 15:45 24.93530 67.27959 1947 ft 166 kts 254°
2026-04-29 15:45 24.93232 67.26782 1736 ft 155 kts 254°
2026-04-29 15:45 24.92952 67.25675 1571 ft 144 kts 256°
2026-04-29 15:46 24.92686 67.24623 1376 ft 141 kts 256°
2026-04-29 15:46 24.92508 67.23920 1240 ft 141 kts 256°
2026-04-29 15:46 24.92246 67.22888 1065 ft 141 kts 256°
2026-04-29 15:46 24.91984 67.21853 914 ft 139 kts 254°
2026-04-29 15:47 24.91724 67.20829 744 ft 139 kts 255°
2026-04-29 15:47 24.91462 67.19793 566 ft 140 kts 256°
2026-04-29 15:47 24.91224 67.18768 410 ft 138 kts 254°
2026-04-29 15:47 24.90949 67.17760 212 ft 138 kts 252°
2026-04-29 15:48 24.90697 67.16800 107 ft 113 kts 252°
2026-04-29 15:48 24.90518 67.16083 104 ft 87 kts 254°
2026-04-29 15:48 24.90401 67.15622 104 ft 21 kts 255°
2026-04-29 15:48 24.90379 67.15533 104 ft 13 kts 255°
2026-04-29 15:49 24.90351 67.15421 104 ft 22 kts 255°
2026-04-29 15:49 24.90295 67.15198 103 ft 38 kts 254°
2026-04-29 15:49 24.90203 67.14988 104 ft 28 kts 226°
2026-04-29 15:49 24.90093 67.14865 103 ft 14 kts 212°
2026-04-29 15:50 24.90040 67.14906 102 ft 9 kts 119°
2026-04-29 15:50 24.90038 67.14967 100 ft 7 kts 71°
2026-04-29 15:50 24.90052 67.15018 100 ft 6 kts 75°
2026-04-29 15:50 24.90052 67.15058 101 ft 5 kts 125°
2026-04-29 15:51 24.89987 67.15106 101 ft 16 kts 150°
2026-04-29 15:51 24.89905 67.15117 101 ft 1 kts 194°